This is the latest recevied weather packets stored in our database for station/object TA3MHA. If no packets are shown the sender has not sent any weather packets the latest 10 day(s).
| Time | Temp. | Humidity | Pressure | Rain* | Wind** | Luminosity | Snow |
|---|---|---|---|---|---|---|---|
| 1777561800 | 18.89° C | 58% | - | 0 mm | - | 149 W/m² | - |
| 1777561501 | 19.44° C | 57% | - | 0 mm | - | 161 W/m² | - |
| 1777561200 | 19.44° C | 56% | - | 0 mm | - | 97 W/m² | - |
| 1777560900 | 19.44° C | 56% | - | 0 mm | - | 214 W/m² | - |
| 1777560600 | 20° C | 56% | - | 0 mm | - | 212 W/m² | - |
| 1777560300 | 20° C | 56% | - | 0 mm | - | 129 W/m² | - |
| 1777560000 | 20° C | 55% | - | 0 mm | - | 116 W/m² | - |
| 1777559700 | 20.56° C | 53% | - | 0 mm | - | 100 W/m² | - |
| 1777559400 | 20.56° C | 54% | - | 0 mm | - | 310 W/m² | - |
| 1777559100 | 20.56° C | 53% | - | 0 mm | - | 312 W/m² | - |
| 1777558800 | 20° C | 57% | - | 0 mm | - | 355 W/m² | - |
| 1777558501 | 20° C | 55% | - | 0 mm | - | 161 W/m² | - |
| 1777558201 | 20° C | 55% | - | 0 mm | - | 172 W/m² | - |
| 1777557900 | 20.56° C | 54% | - | 0 mm | - | 109 W/m² | - |
| 1777557600 | 21.11° C | 53% | - | 0 mm | - | 121 W/m² | - |
| 1777557301 | 21.67° C | 52% | - | 0 mm | - | 119 W/m² | - |
| 1777557000 | 21.67° C | 50% | - | 0 mm | - | 341 W/m² | - |
| 1777556700 | 21.67° C | 51% | - | 0 mm | - | 429 W/m² | - |
| 1777556401 | 21.67° C | 49% | - | 0 mm | - | 456 W/m² | - |
| 1777556101 | 22.22° C | 49% | - | 0 mm | - | 467 W/m² | - |
| 1777555800 | 21.67° C | 47% | - | 0 mm | - | 502 W/m² | - |
| 1777555500 | 21.67° C | 47% | - | 0 mm | - | 538 W/m² | - |
| 1777555201 | 21.11° C | 47% | - | 0 mm | - | 166 W/m² | - |
| 1777554900 | 21.67° C | 46% | - | 0 mm | - | 128 W/m² | - |
| 1777554600 | 22.22° C | 45% | - | 0 mm | - | 157 W/m² | - |
* Rain latest hour (hover to see other rain measurements)
** Current wind speed in m/s (hover to see current wind gust speed)